This is the latest recevied weather packets stored in our database for station/object K5BOU. If no packets are shown the sender has not sent any weather packets the latest 10 day(s).
| Time | Temp. | Humidity | Pressure | Rain* | Wind** | Luminosity | Snow |
|---|---|---|---|---|---|---|---|
| 1777855586 | 22.78° C | 57% | 1015.7 hPa | 0 mm | - | 12 W/m² | - |
| 1777855283 | 22.78° C | 56% | 1015.7 hPa | 0 mm | - | 15 W/m² | - |
| 1777854979 | 23.33° C | 56% | 1015.7 hPa | 0 mm | - | 23 W/m² | - |
| 1777854676 | 23.33° C | 55% | 1015.7 hPa | 0 mm | - | 30 W/m² | - |
| 1777854373 | 23.33° C | 55% | 1015.7 hPa | 0 mm | - | 33 W/m² | - |
| 1777854070 | 23.33° C | 54% | 1015.8 hPa | 0 mm | - | 36 W/m² | - |
| 1777853768 | 23.89° C | 54% | 1015.8 hPa | 0 mm | - | 35 W/m² | - |
| 1777853464 | 23.89° C | 53% | 1015.5 hPa | 0 mm | - | 37 W/m² | - |
| 1777853161 | 23.89° C | 53% | 1015.4 hPa | 0 mm | - | 50 W/m² | - |
| 1777852858 | 23.89° C | 53% | 1015.6 hPa | 0 mm | - | 34 W/m² | - |
| 1777852556 | 23.89° C | 51% | 1015.7 hPa | 0 mm | - | 52 W/m² | - |
| 1777852253 | 24.44° C | 51% | 1015.6 hPa | 0 mm | - | 42 W/m² | - |
| 1777851951 | 25° C | 51% | 1015.8 hPa | 0 mm | - | 109 W/m² | - |
| 1777851649 | 25° C | 52% | 1015.9 hPa | 0 mm | - | 100 W/m² | - |
| 1777851345 | 25° C | 51% | 1015.8 hPa | 0 mm | - | 80 W/m² | - |
| 1777851041 | 25.56° C | 50% | 1015.7 hPa | 0 mm | - | 99 W/m² | - |
| 1777850739 | 25.56° C | 50% | 1015.8 hPa | 0 mm | - | 174 W/m² | - |
| 1777850436 | 25.56° C | 50% | 1015.9 hPa | 0 mm | - | 195 W/m² | - |
| 1777850134 | 25.56° C | 49% | 1015.8 hPa | 0 mm | - | 216 W/m² | - |
| 1777849830 | 25.56° C | 49% | 1015.9 hPa | 0 mm | - | 235 W/m² | - |
| 1777849527 | 26.11° C | 47% | 1015.9 hPa | 0 mm | - | 249 W/m² | - |
| 1777849224 | 26.67° C | 45% | 1015.9 hPa | 0 mm | - | 265 W/m² | - |
| 1777848921 | 26.11° C | 46% | 1015.9 hPa | 0 mm | - | 300 W/m² | - |
| 1777848616 | 26.11° C | 44% | 1015.9 hPa | 0 mm | - | 311 W/m² | - |
| 1777848314 | 26.11° C | 45% | 1015.8 hPa | 0 mm | - | 309 W/m² | - |
* Rain latest hour (hover to see other rain measurements)
** Current wind speed in m/s (hover to see current wind gust speed)